Regional Weather Roundup
Issued by NWS Little Rock, AR

Home | Current Version | Previous Version | Graphics & Text | Print | Product List | Glossary On
Versions: 1 2 3 4 5 6 7 8 9 10 11 12 13 14 15 16 17 18 19 20 21 22 23 24 25 26 27 28 29 30 31 32 33 34 35 36 37 38 39 40 41 42 43 44 45 46 47 48 49 50
000
ASUS44 KLZK 261005
RWRLZK

WEATHER ROUNDUP FOR ARKANSAS
NATIONAL WEATHER SERVICE LITTLE ROCK AR
500 AM CDT SAT JUL 26 2014

NOTE: "FAIR" INDICATES FEW OR NO CLOUDS BELOW 12,000 FEET WITH NO
SIGNIFICANT WEATHER AND/OR OBSTRUCTIONS TO VISIBILITY.

ARZ001-003-010-029-261100-
NORTHWEST ARKANSAS

CITY           SKY/WX    TMP DP  RH WIND       PRES   REMARKS
FAYETTEVILLE   CLEAR     74  71  91 CALM      29.98R
FORT SMITH     CLEAR     75  72  90 NE5       29.95R FOG
HARRISON       CLEAR     72  70  93 S7        29.98R FOG
BENTONVILLE    CLEAR     73  68  83 S6        29.97R
ROGERS         CLEAR     74  70  87 S10       29.98R
SILOAM SPGS    CLEAR     72  64  78 S7        29.98R
HIGHFILL       CLEAR     73  71  93 S5        29.97R
$$

ARZ004-005-016-261100-
NORTH CENTRAL ARKANSAS

CITY           SKY/WX    TMP DP  RH WIND       PRES   REMARKS
BATESVILLE     CLEAR     75  72  88 SW9       29.95S
FLIPPIN        CLEAR     73  70  88 CALM      29.96R
MTN HOME       CLEAR     71  70  96 S5        29.95R FOG
$$

ARZ040-041-261100-
WEST CENTRAL ARKANSAS

CITY           SKY/WX    TMP DP  RH WIND       PRES   REMARKS
MENA           CLEAR     73  72  94 CALM      30.01R
MOUNT IDA      CLEAR     69  68  96 CALM      29.97R FOG
$$

ARZ009-017-025-026-028-261100-
NORTHEAST ARKANSAS

CITY           SKY/WX    TMP DP  RH WIND       PRES   REMARKS
CORNING        FAIR      68  68 100 S7        29.95S
JONESBORO      CLEAR     71  68  90 S7        29.95S
NEWPORT        CLEAR     73  71  93 S9        29.96S
WALNUT RIDGE   CLEAR     72  64  78 S7        29.94R
BLYTHEVILLE    CLEAR     69  66  90 S8        29.97F
$$

ARZ022-023-033-042-044-261100-
CENTRAL ARKANSAS

CITY           SKY/WX    TMP DP  RH WIND       PRES   REMARKS
LITTLE ROCK    CLEAR     73  69  87 SE3       29.98R
N LITTLE ROCK    N/A     74  73  95 SW7       29.98R
JACKSONVILLE   CLEAR     70  70  99 NE2       29.98R
SEARCY         CLEAR     70  70 100 CALM      29.99S FOG
HOT SPRINGS    CLEAR     73  71  93 CALM      29.99R FOG
RUSSELLVILLE   CLEAR     73  71  93 CALM      29.96R FOG
CLINTON        FAIR      68  68 100 CALM      29.99R FOG
$$

ARZ036-261100-
EAST ARKANSAS

CITY           SKY/WX    TMP DP  RH WIND       PRES   REMARKS
WEST MEMPHIS   CLEAR     70  68  93 S6        29.98R
$$

ARZ050-053-066-070-073-261100-
SOUTHWEST ARKANSAS

CITY           SKY/WX    TMP DP  RH WIND       PRES   REMARKS
ARKADELPHIA    FOG       73  73 100 CALM      29.99R VSB 1/4
CAMDEN         FOG       72  70  94 CALM      29.97S VSB 1/2
TEXARKANA      CLEAR     75  73  93 S5        29.97R
EL DORADO      CLEAR     72  71  97 CALM      29.99R
DE QUEEN       FOG       70  70 100 E3        29.96R VSB 1/2
$$

ARZ056-057-069-261100-
SOUTHEAST ARKANSAS

CITY           SKY/WX    TMP DP  RH WIND       PRES   REMARKS
PINE BLUFF     CLEAR     70  69  97 CALM      29.99R
STUTTGART      CLEAR     73  70  88 S8        29.99S
MONTICELLO     CLEAR     72  69  90 CALM      29.99R

$$





USA.gov is the U.S. government's official web portal to all federal, state and local government web resources and services.